Flag for Switzerland Weather past 2 weeks in Worb, Bern, Switzerland

Now
32 °F

Passing clouds.


Feels Like: 29 °F
Forecast: 35 / 49 °F
Wind: 3 mph from Southeast

Location: Bern / Belp

Current Time: Dec 21, 2014 at 9:10:41 PM

Latest Report: Dec 21, 2014 at 8:20 PM


Visibility: N/A

Pressure: 30.54 "Hg

Humidity: 93%

Dew point: 30 °F

Location of WorbLocation

Historic Weather in Worb — Graph

°F

Worb temperature yesterday

Maximum temperature yesterday: 50 °F (at 12:20 AM)
Minimum temperature yesterday: 39 °F (at 7:50 AM)
Average temperature yesterday: 45 °F

Past Weeks' High & Low Weather Summary

 TemperatureHumidityPressure
High54 °F (Dec 19, 2:20 PM)100% (Dec 8, 12:50 AM)30.54 "Hg (Dec 8, 12:50 AM)
Low25 °F (Dec 10, 4:20 AM)50% (Dec 12, 1:50 PM)29.86 "Hg (Dec 12, 3:20 PM)
Average39 °F88%30.13 "Hg
* Reported Dec 6 7:20 PM — Dec 21 7:50 PM, Worb, Weather by CustomWeather, © 2014

Note: Actual official high and low records may vary slightly from our data, if they occured in-between our weather recording intervals... More about our weather records

Advertising

Worb weather history for previous 24 hours

 ConditionsComfort  
Time TempWeatherWind HumidityBarometerVisibility
7:50 PM
Dec 21
32 °FPassing clouds.6 mph93%30.54 "HgN/A
7:20 PM32 °FPassing clouds.3 mph93%30.54 "HgN/A
6:50 PM32 °FPassing clouds.2 mph93%30.54 "HgN/A
6:20 PM34 °FPassing clouds.1 mph93%30.51 "HgN/A
5:50 PM36 °FPassing clouds.1 mph87%30.51 "HgN/A
5:20 PM37 °FClear.1 mph81%30.51 "Hg10 mi
4:50 PM39 °FClear.1 mph81%30.51 "Hg10 mi
4:20 PM43 °FSunny.3 mph66%30.51 "Hg10 mi
3:50 PM43 °FPassing clouds.3 mph71%30.51 "HgN/A
3:20 PM45 °FPassing clouds.3 mph61%30.51 "HgN/A
2:50 PM48 °FPassing clouds.2 mph54%30.51 "HgN/A
2:20 PM46 °FSunny.2 mph57%30.51 "Hg10 mi
1:50 PM46 °FPassing clouds.2 mph53%30.51 "HgN/A
1:20 PM45 °FPassing clouds.2 mph61%30.51 "HgN/A
12:50 PM45 °FPassing clouds.1 mph61%30.54 "HgN/A
12:20 PM45 °FSunny.2 mph61%30.54 "Hg10 mi
11:50 AM43 °FSunny.3 mph66%30.54 "Hg10 mi
11:20 AM39 °FSunny.1 mph75%30.54 "Hg10 mi
10:50 AM37 °FSunny.3 mph81%30.54 "Hg10 mi
10:20 AM34 °FSunny.3 mph93%30.54 "Hg10 mi
9:50 AM32 °FSunny.5 mph93%30.54 "Hg10 mi
9:20 AM30 °FSunny.2 mph100%30.54 "Hg10 mi
8:50 AM28 °FSunny.2 mph100%30.54 "Hg10 mi
8:20 AM28 °FSunny.1 mph100%30.54 "Hg10 mi
7:50 AM28 °FClear.1 mph100%30.51 "Hg10 mi
7:20 AM30 °FClear.1 mph93%30.51 "Hg10 mi
6:50 AM30 °FClear.3 mph93%30.51 "Hg10 mi
6:20 AM30 °FClear.1 mph93%30.54 "Hg10 mi
5:50 AM32 °FClear.2 mph93%30.54 "Hg10 mi
5:20 AM32 °FClear.2 mph93%30.54 "Hg10 mi
4:50 AM36 °FChilly.1 mph87%30.54 "HgN/A
4:20 AM34 °FPassing clouds.3 mph93%30.51 "HgN/A
3:50 AM37 °FPassing clouds.2 mph81%30.51 "HgN/A
3:20 AM37 °FPassing clouds.2 mph87%30.51 "HgN/A
2:50 AM39 °FOvercast.1 mph81%30.51 "HgN/A
2:20 AM39 °FPassing clouds.1 mph75%30.51 "HgN/A
1:50 AM39 °FPassing clouds.3 mph75%30.48 "HgN/A
1:20 AM39 °FPassing clouds.6 mph75%30.48 "HgN/A
12:50 AM41 °FOvercast.5 mph70%30.48 "HgN/A
12:20 AM41 °FOvercast.7 mph70%30.48 "HgN/A
11:50 PM
Dec 20
39 °FPassing clouds.6 mph81%30.48 "HgN/A
11:20 PM39 °FOvercast.5 mph75%30.48 "HgN/A
10:20 PM41 °FOvercast.6 mph66%30.48 "HgN/A
9:50 PM41 °FOvercast.5 mph66%30.48 "HgN/A
9:20 PM41 °FOvercast.8 mph61%30.48 "HgN/A
Weather by CustomWeather, © 2014

See weather overviewHow to use our weather pages